FW2417 Weather Reports


Display with metric or nautical units.
time (UTC)temp
F
wind
direction
speed
MPH
gust
MPH
rain 1hr
in
rain 24hr
in
rain mn
in
humidity
%
barometer
mb
20260509093018 67 243 14.0 22.0 0.00 0.02 0.02 66 1010.4
20260509091511 67 216 10.0 19.0 0.00 0.02 0.02 65 1010.5
20260509090116 67 229 9.0 19.0 0.00 0.02 0.02 66 1010.5
20260509084620 65 198 12.0 19.0 0.00 0.02 0.02 68 1010.5
20260509083108 66 259 7.0 16.0 0.00 0.02 0.02 69 1010.4
20260509081605 65 248 4.0 15.0 0.00 0.02 0.02 73 1010.3
20260509080100 63 194 1.0 9.0 0.01 0.02 0.02 79 1010.2
20260509074606 62 266 0.0 11.0 0.01 0.02 0.02 81 1010.2
20260509073058 61 177 4.0 13.0 0.02 0.02 0.02 81 1010.2
20260509071607 61 204 3.0 11.0 0.02 0.02 0.02 84 1010.2
20260509070055 60 194 0.0 3.0 0.01 0.01 0.01 85 1010.3
20260509064554 60 224 0.0 6.0 0.01 0.01 0.01 84 1010.4
20260509063042 60 239 0.0 4.0 0.00 0.00 0.00 82 1010.3
20260509061545 61 238 0.0 3.0 0.00 0.00 0.00 76 1010.1
20260509060049 61 238 0.0 1.0 0.00 0.00 0.00 75 1009.8
20260509054609 60 238 0.0 1.0 0.00 0.00 0.00 74 1009.7
20260509053138 60 238 0.0 1.0 0.00 0.00 0.00 74 1009.6
20260509051548 59 221 0.0 1.0 0.00 0.00 0.00 77 1009.0
20260509050046 58 347 0.0 0.0 0.00 0.00 0.00 77 1009.1
20260509044539 57 347 0.0 0.0 0.00 0.00 0.00 77 1009.1
20260509043038 58 333 0.0 0.0 0.00 0.00 0.00 76 1009.1
20260509041535 58 337 0.0 1.0 0.00 0.00 0.00 76 1008.8
20260509040120 58 355 0.0 1.0 0.00 0.00 0.00 75 1008.8
20260509034502 60 143 0.0 0.0 0.00 0.00 0.00 74 1008.8
20260509033031 60 143 0.0 0.0 0.00 0.00 0.00 73 1008.9
20260509031533 59 143 0.0 1.0 0.00 0.00 0.00 74 1009.0
20260509030020 60 143 0.0 0.0 0.00 0.00 0.00 73 1009.0
20260509024501 60 143 0.0 1.0 0.00 0.00 0.00 72 1009.2
20260509023112 60 152 0.0 1.0 0.00 0.00 0.00 71 1009.4
20260509021608 61 128 0.0 2.0 0.00 0.00 0.00 71 1009.3
20260509020055 61 111 0.0 2.0 0.00 0.00 0.00 71 1009.3
20260509014554 61 75 0.0 2.0 0.00 0.00 0.00 71 1009.5
20260509013104 62 98 0.0 1.0 0.00 0.00 0.00 71 1009.7
20260509011558 62 99 0.0 2.0 0.00 0.00 0.00 71 1010.0
20260509010046 62 91 0.0 2.0 0.00 0.00 0.00 70 1010.4
20260509004543 62 97 0.0 1.0 0.00 0.00 0.00 70 1010.5
20260509003054 62 61 0.0 1.0 0.00 0.00 0.00 70 1010.6
20260509001538 62 98 0.0 2.0 0.00 0.00 0.00 70 1010.7
20260509000030 62 260 0.0 1.0 0.00 0.00 0.00 70 1011.0
20260508234532 62 259 0.0 0.0 0.00 0.00 0.00 70 1011.1
20260508233029 62 259 0.0 0.0 0.00 0.00 0.00 70 1011.2
20260508231501 62 259 0.0 0.0 0.00 0.00 0.00 69 1011.3
20260508230032 62 260 0.0 0.0 0.00 0.00 0.00 69 1011.3
20260508224537 63 260 0.0 0.0 0.00 0.00 0.00 69 1011.3
20260508223119 63 260 0.0 0.0 0.00 0.00 0.00 68 1011.4
20260508221503 63 259 0.0 0.0 0.00 0.00 0.00 67 1011.3
20260508220109 63 259 0.0 1.0 0.00 0.00 0.00 67 1011.4
20260508214605 63 260 0.0 0.0 0.00 0.00 0.00 66 1011.2
20260508213103 63 260 0.0 1.0 0.00 0.00 0.00 65 1011.2
20260508211559 64 260 0.0 3.0 0.00 0.00 0.00 64 1011.2
20260508210057 64 235 0.0 4.0 0.00 0.00 0.00 63 1011.1
20260508204557 64 246 0.0 4.0 0.00 0.00 0.00 62 1010.9
20260508203056 65 327 0.0 3.0 0.00 0.00 0.00 60 1010.7
20260508201546 65 254 0.0 5.0 0.00 0.00 0.00 59 1010.6
20260508200055 66 245 0.0 4.0 0.00 0.00 0.00 57 1010.4
20260508194537 67 301 1.0 8.0 0.00 0.00 0.00 56 1010.4
20260508193029 67 242 2.0 7.0 0.00 0.00 0.00 56 1010.0
20260508191538 68 205 1.0 6.0 0.00 0.00 0.00 55 1009.8
20260508190005 69 246 1.0 10.0 0.00 0.00 0.00 55 1009.7
20260508184502 70 250 2.0 12.0 0.00 0.00 0.00 55 1009.4
20260508183003 71 250 2.0 16.0 0.00 0.00 0.00 53 1009.3
20260508181529 72 232 2.0 15.0 0.00 0.00 0.00 52 1009.2
20260508180116 73 238 3.0 13.0 0.00 0.00 0.00 50 1009.0
20260508174503 74 226 3.0 15.0 0.00 0.00 0.00 48 1009.0
20260508173115 75 270 1.0 12.0 0.00 0.00 0.00 47 1008.9
20260508171616 76 236 0.0 9.0 0.00 0.00 0.00 46 1009.0
20260508170113 76 290 1.0 7.0 0.00 0.00 0.00 45 1009.1
20260508164613 76 263 0.0 7.0 0.00 0.00 0.00 43 1009.1
20260508163129 76 239 0.0 8.0 0.00 0.00 0.00 43 1009.1
20260508161613 76 242 4.0 10.0 0.00 0.00 0.00 42 1009.2
20260508160105 76 228 3.0 9.0 0.00 0.00 0.00 41 1009.3
20260508154612 76 231 1.0 11.0 0.00 0.00 0.00 42 1009.4
20260508153105 77 228 2.0 8.0 0.00 0.00 0.00 41 1009.5
20260508151603 76 297 2.0 10.0 0.00 0.00 0.00 41 1009.7
20260508150058 77 329 2.0 13.0 0.00 0.00 0.00 40 1009.9
20260508144555 76 231 0.0 8.0 0.00 0.00 0.00 41 1010.1
20260508143051 76 215 6.0 12.0 0.00 0.00 0.00 39 1010.4
20260508141555 76 208 2.0 13.0 0.00 0.00 0.00 41 1010.6
20260508140049 76 236 2.0 13.0 0.00 0.00 0.00 41 1010.9
20260508134545 76 283 0.0 5.0 0.00 0.00 0.00 41 1010.9
20260508133044 74 262 0.0 7.0 0.00 0.00 0.00 42 1011.1
20260508131536 75 321 1.0 8.0 0.00 0.00 0.00 42 1011.2
20260508130115 74 256 2.0 7.0 0.00 0.00 0.00 42 1011.4
20260508124616 74 232 0.0 6.0 0.00 0.00 0.00 42 1011.5
20260508123114 74 246 0.0 7.0 0.00 0.00 0.00 43 1011.7
20260508121613 73 246 3.0 12.0 0.00 0.00 0.00 44 1011.9
20260508120107 73 236 1.0 7.0 0.00 0.00 0.00 44 1012.0
20260508114605 71 240 2.0 10.0 0.00 0.00 0.00 47 1012.2
20260508113059 71 218 0.0 7.0 0.00 0.00 0.00 48 1012.3
20260508111552 71 203 3.0 8.0 0.00 0.00 0.00 49 1012.4
20260508110054 70 188 1.0 8.0 0.00 0.00 0.00 52 1012.4
20260508104509 69 232 3.0 8.0 0.00 0.00 0.00 53 1012.6
20260508103003 70 30 1.0 8.0 0.00 0.00 0.00 52 1012.6
20260508101523 69 163 2.0 10.0 0.00 0.00 0.00 55 1012.9
20260508100007 68 255 4.0 13.0 0.00 0.00 0.00 56 1013.1
20260508094505 68 213 5.0 12.0 0.00 0.00 0.00 56 1013.2